This is the latest recevied weather packets stored in our database for station/object DG3NAD-21. If no packets are shown the sender has not sent any weather packets the latest 1 day(s).
| Time | Temp. | Humidity | Pressure | Rain* | Wind** | Luminosity | Snow |
|---|---|---|---|---|---|---|---|
| 1778425196 | 24.44° C | 35% | 1011.3 hPa | - | - | - | - |
| 1778424296 | 24.44° C | 35% | 1011.4 hPa | - | - | - | - |
| 1778423396 | 24.44° C | 36% | 1011.5 hPa | - | - | - | - |
| 1778422495 | 24.44° C | 36% | 1011.7 hPa | - | - | - | - |
| 1778421594 | 24.44° C | 36% | 1012 hPa | - | - | - | - |
| 1778420694 | 24.44° C | 38% | 1012 hPa | - | - | - | - |
| 1778419793 | 24.44° C | 37% | 1012.2 hPa | - | - | - | - |
| 1778418892 | 24.44° C | 38% | 1012.5 hPa | - | - | - | - |
| 1778417992 | 23.89° C | 37% | 1012.6 hPa | - | - | - | - |
| 1778417092 | 24.44° C | 37% | 1012.8 hPa | - | - | - | - |
| 1778416192 | 23.89° C | 40% | 1013.1 hPa | - | - | - | - |
| 1778415292 | 23.89° C | 41% | 1013.3 hPa | - | - | - | - |
| 1778414392 | 23.89° C | 43% | 1013.5 hPa | - | - | - | - |
| 1778413492 | 23.89° C | 41% | 1013.8 hPa | - | - | - | - |
| 1778412592 | 23.33° C | 42% | 1014.1 hPa | - | - | - | - |
| 1778411692 | 23.33° C | 42% | 1014.2 hPa | - | - | - | - |
| 1778410792 | 23.33° C | 42% | 1014.4 hPa | - | - | - | - |
| 1778409892 | 23.33° C | 41% | 1014.6 hPa | - | - | - | - |
| 1778408991 | 22.78° C | 41% | 1014.7 hPa | - | - | - | - |
| 1778408091 | 22.78° C | 42% | 1014.8 hPa | - | - | - | - |
| 1778407191 | 22.78° C | 43% | 1015 hPa | - | - | - | - |
| 1778406291 | 22.22° C | 43% | 1015.1 hPa | - | - | - | - |
| 1778405391 | 22.22° C | 42% | 1015.3 hPa | - | - | - | - |
| 1778404491 | 22.22° C | 44% | 1015.4 hPa | - | - | - | - |
| 1778403591 | 21.67° C | 44% | 1015.5 hPa | - | - | - | - |
* Rain since midnight (hover to see other rain measurements)
** Current wind speed in m/s (hover to see current wind gust speed)